Theta_e
302 302 302 302 302 303 303 303 301 302 302 300 295 295 295 296 297 303 311 309 306 302 307 312 318 318 315 315 317 315 323 325 324 320 320 319 319 319 320 321 320 321 340 342 344
301 301 302 302 302 302 302 302 301 302 302 302 302 303 294 299 300 307 310 304 302 302 303 311 316 318 319 316 318 321 323 324 322 322 321 319 319 319 320 321 321 321 341 343 343
301 301 301 301 301 301 301 300 299 300 300 300 301 303 295 300 302 310 308 302 300 302 304 309 313 318 320 315 318 320 323 322 321 321 321 320 320 320 321 321 321 321 332 343 342
300 300 301 301 301 301 301 300 299 299 300 301 302 302 296 301 297 306 306 301 301 303 304 311 316 319 321 321 316 318 318 320 321 321 321 321 320 321 321 322 321 321 322 332 344
300 300 300 300 300 300 298 294 295 298 299 303 304 303 297 296 295 301 300 299 301 304 305 306 313 317 319 318 316 318 317 316 316 318 320 321 322 322 322 322 321 320 319 327 336
300 300 300 299 299 298 293 294 298 299 301 304 305 302 300 295 297 298 299 299 303 305 306 305 305 305 310 317 318 317 317 317 316 315 316 319 320 321 322 321 321 321 321 321 322
300 300 300 299 297 293 294 297 298 300 302 303 305 301 301 296 299 303 303 302 303 305 306 306 306 307 308 315 315 316 318 318 319 318 315 317 319 319 319 320 321 321 321 321 325
301 300 300 296 294 294 294 296 298 302 302 301 300 300 299 298 302 303 304 304 305 304 306 306 306 307 307 309 311 314 315 317 314 319 317 317 317 318 319 320 321 321 321 321 321
301 301 300 295 294 295 293 294 300 304 302 303 302 301 301 301 301 302 304 303 304 305 306 305 306 307 307 310 308 311 312 312 312 316 316 317 318 316 316 317 320 321 321 321 321
301 300 300 295 294 295 294 296 299 303 299 301 302 299 298 299 300 301 303 304 303 305 306 307 308 309 310 311 302 303 308 311 314 315 315 317 318 317 316 316 320 321 321 321 321
299 299 299 295 293 295 295 296 297 298 297 298 298 299 299 300 301 301 302 306 307 307 306 306 307 309 309 308 308 310 309 308 310 312 316 315 318 317 316 317 318 318 321 321 321
298 298 298 294 294 296 297 296 296 296 298 297 298 299 299 300 302 302 304 305 306 307 307 307 308 306 305 306 306 308 308 307 306 308 312 313 315 315 316 316 317 318 319 321 322
297 298 297 293 294 296 297 296 296 297 298 296 297 299 300 301 303 303 304 305 306 306 307 307 307 306 305 306 307 307 306 306 306 306 309 313 316 316 315 316 316 318 319 320 322
297 298 297 292 293 294 295 296 297 298 294 294 302 302 299 302 304 303 304 305 306 307 307 307 306 307 307 308 307 308 306 306 305 305 308 314 320 316 314 315 316 317 319 320 321
298 297 297 294 295 294 295 295 298 294 298 294 300 298 299 300 303 304 305 305 306 305 306 306 305 306 307 307 306 307 307 308 307 307 306 308 311 311 315 317 316 317 318 319 321
296 296 296 295 294 294 293 297 295 297 293 298 298 298 299 299 301 300 304 305 305 307 306 306 305 305 306 306 306 306 308 308 309 310 310 306 308 309 310 314 316 317 317 318 320
294 294 294 294 293 294 295 293 297 297 293 298 298 298 299 299 300 300 300 302 305 305 304 304 303 304 306 308 307 307 309 311 310 313 310 305 306 308 310 313 314 316 317 318 319
293 293 296 295 295 296 294 296 294 291 297 298 298 298 300 300 299 300 301 301 302 304 305 305 304 305 307 306 306 306 307 310 310 309 307 306 307 309 312 313 314 316 317 318 319
293 296 297 298 295 296 295 295 294 294 298 298 298 299 299 299 299 299 299 302 304 302 302 306 304 301 302 304 305 306 308 308 313 312 311 307 307 309 309 313 314 318 319 318 319
293 295 297 296 297 295 294 296 296 295 298 297 298 299 299 298 298 297 299 301 301 301 302 302 301 302 303 304 306 307 307 309 313 316 314 310 309 308 315 318 320 320 319 320 319
293 295 295 298 296 294 295 292 295 296 297 297 299 298 298 298 297 296 297 300 300 299 297 300 302 302 303 304 305 306 307 308 308 308 312 316 313 315 313 312 322 320 319 320 320
291 293 294 294 295 289 293 295 297 298 296 297 297 298 297 297 296 296 296 298 296 297 296 299 301 303 301 303 305 306 306 307 308 307 307 309 310 309 309 309 315 317 318 317 316
291 291 293 295 297 291 293 296 297 296 297 296 295 295 296 296 296 296 296 296 295 295 295 298 300 300 299 301 302 300 303 306 306 306 307 307 308 305 308 309 311 316 317 317 315
289 291 290 290 290 294 297 296 296 295 295 295 296 296 296 296 296 296 296 295 295 294 297 298 299 299 299 298 298 301 299 301 303 306 306 306 306 307 307 308 309 312 313 315 317
287 288 289 291 292 296 295 295 295 294 295 295 296 296 295 295 295 295 294 294 294 295 296 297 297 295 295 296 296 298 300 302 301 301 303 304 305 307 308 307 309 310 310 313 315
290 290 291 292 293 294 294 293 294 294 295 295 296 295 295 296 295 295 295 294 294 294 295 296 296 296 296 295 297 298 298 298 300 304 305 305 307 307 307 307 308 310 309 312 313
291 291 292 291 292 292 292 294 295 295 295 295 295 295 295 294 294 294 293 293 293 294 296 295 296 296 296 294 297 299 300 299 301 305 307 310 310 308 308 307 308 310 309 313 311
Wind_Speed
13 13 14 13 14 14 14 14 14 14 15 15 16 18 20 20 21 10 5 7 12 15 11 8 3 3 2 3 4 3 6 15 21 15 11 3 3 2 0 5 3 2 4 5 18
12 12 12 13 13 14 15 15 16 16 16 15 16 17 19 21 19 2 3 8 15 18 10 7 2 2 2 3 5 8 8 20 8 17 14 9 7 6 4 6 10 9 5 9 13
12 12 13 14 14 15 15 15 15 15 15 16 16 16 20 17 2 3 6 12 17 15 8 5 4 2 3 3 7 7 22 17 12 9 12 12 15 6 10 13 14 12 3 6 12
14 14 15 15 15 16 16 17 16 15 15 14 14 15 17 7 4 2 5 14 15 13 5 2 1 1 3 7 6 14 23 13 16 17 12 12 6 14 14 24 13 12 15 6 13
15 16 17 18 18 19 20 20 18 17 17 13 9 10 7 4 3 3 9 13 12 11 10 5 1 2 5 4 3 18 22 16 16 17 15 15 19 19 26 29 18 14 10 10 12
17 18 19 21 21 24 24 20 20 21 17 11 5 1 2 3 2 10 14 10 5 9 7 9 6 6 6 6 8 7 15 16 13 17 18 19 20 14 33 22 20 20 22 20 19
17 19 20 22 24 28 23 21 23 16 14 9 6 5 3 4 8 12 8 3 3 4 1 4 6 4 6 4 7 11 18 20 23 16 15 9 20 25 42 19 19 16 17 15 15
18 19 22 25 27 26 23 20 18 8 12 10 5 4 2 3 7 8 8 5 5 7 4 5 3 3 3 8 8 11 13 12 7 15 12 14 30 28 23 17 25 24 23 22 22
18 20 22 25 28 23 24 22 8 5 8 7 2 2 2 7 6 10 4 5 8 5 8 12 5 2 2 4 7 10 16 22 19 8 10 21 29 30 27 19 22 20 21 21 22
17 20 22 25 28 20 25 13 6 4 7 1 2 1 2 5 9 13 9 6 4 7 3 2 3 2 2 5 12 13 15 19 21 6 12 20 29 25 22 17 14 15 18 19 19
17 19 21 23 25 21 22 5 9 4 10 2 7 3 6 11 6 2 4 2 1 1 2 2 1 6 9 12 16 16 19 26 27 18 17 26 27 25 18 19 21 24 17 16 15
17 18 20 20 16 15 22 8 5 2 7 5 7 9 11 5 3 1 1 3 3 3 1 1 8 13 10 12 14 16 20 25 26 18 19 28 31 29 22 19 22 22 22 20 16
16 17 19 21 6 13 16 9 10 2 2 6 3 3 5 3 3 3 1 1 2 2 3 6 5 6 7 12 12 15 18 23 26 18 24 22 36 29 26 25 23 21 25 21 19
14 15 19 20 3 11 3 11 13 7 3 5 3 1 2 2 3 1 1 1 2 4 4 7 6 8 9 10 9 17 11 19 21 15 15 3 20 20 16 24 23 25 20 23 25
14 15 16 14 6 4 5 13 5 2 3 7 2 3 9 2 7 2 1 0 6 6 3 6 8 10 12 10 9 10 8 12 12 16 17 22 16 21 15 20 24 24 27 24 23
15 14 16 9 9 2 10 10 2 4 2 4 3 8 8 5 5 7 3 1 2 6 6 13 6 6 4 11 14 15 17 18 15 11 9 24 19 24 18 26 23 25 24 25 24
16 17 14 7 2 6 11 3 4 4 3 3 5 9 7 6 6 6 7 7 3 5 5 11 2 3 5 7 3 5 9 4 3 5 12 7 16 27 13 19 25 28 26 21 23
17 13 5 3 3 3 4 4 5 2 2 3 5 9 2 9 5 8 8 8 5 4 4 4 7 2 4 4 7 13 9 6 6 6 15 9 14 16 16 24 27 22 25 22 19
16 5 5 9 2 1 4 4 4 2 2 6 8 2 2 6 3 6 4 5 5 8 8 6 5 5 8 9 2 3 6 12 7 20 11 9 29 22 23 24 26 26 26 20 23
8 3 7 7 5 4 4 1 0 2 2 1 2 2 4 5 6 10 4 2 4 6 2 4 9 4 4 1 2 4 6 5 3 5 5 10 20 12 9 11 14 15 21 23 22
4 2 3 2 4 4 2 3 3 3 2 2 2 4 4 3 5 7 5 3 8 5 8 6 5 11 9 4 9 4 4 3 4 5 7 7 2 13 19 24 17 14 14 19 21
3 2 4 2 3 1 1 2 3 3 2 2 3 6 5 3 6 5 6 4 14 10 10 2 5 8 16 9 2 1 7 4 4 7 8 7 8 12 18 19 20 17 16 16 15
2 1 4 1 1 0 3 3 3 2 1 2 3 3 2 4 4 5 6 6 15 9 7 5 3 8 12 2 3 4 5 7 7 8 12 7 8 16 20 20 20 19 17 16 15
2 2 3 3 1 2 1 3 2 1 5 4 3 3 2 3 6 7 12 7 12 16 16 13 4 3 7 11 13 15 13 15 11 7 13 15 25 19 18 18 18 19 19 15 13
2 1 1 1 1 1 1 1 4 5 4 1 2 4 4 6 11 14 12 20 14 15 8 2 6 6 11 15 19 22 19 18 13 18 10 20 17 19 16 17 17 17 15 14 11
3 3 1 2 1 2 3 3 4 5 4 4 7 8 5 6 11 19 17 16 13 11 12 3 8 13 16 18 16 21 22 22 16 13 12 14 19 15 19 11 12 12 13 10 10
3 3 2 1 1 2 3 4 2 2 6 8 5 10 15 17 15 15 15 18 20 20 22 13 7 7 14 13 14 12 6 6 7 8 9 7 11 18 20 15 14 14 13 5 7
Wind_Direction
26 19 17 10 10 2 356 352 351 352 352 354 344 343 348 342 329 359 34 355 347 339 335 333 44 24 174 218 178 146 233 242 236 229 245 280 241 167 343 262 315 284 327 334 147
21 15 11 7 2 356 350 347 345 346 346 347 344 345 351 339 335 46 30 357 348 350 344 360 1 31 191 208 196 206 233 242 243 237 251 249 253 304 298 280 280 290 65 109 152
20 13 10 6 1 354 349 343 344 342 340 340 341 341 343 335 321 63 336 353 353 358 332 318 305 258 192 203 202 208 239 241 244 260 261 259 265 259 268 266 254 269 115 161 179
16 11 8 3 360 354 348 343 341 337 338 338 337 337 341 348 1 109 337 348 351 4 356 349 350 261 236 214 212 250 248 249 257 261 270 268 281 261 260 256 259 270 293 221 195
12 9 4 1 358 353 348 345 347 348 343 332 326 336 348 9 256 304 319 336 349 21 27 8 340 284 250 264 258 240 259 265 261 256 258 271 259 269 259 260 261 264 253 253 234
12 8 4 1 358 353 349 352 350 344 339 324 294 234 66 343 351 326 313 326 19 38 24 29 358 312 283 261 258 309 292 284 275 263 256 254 267 274 258 259 262 256 259 255 249
9 5 1 359 357 354 356 353 346 344 5 3 165 158 115 238 342 358 6 7 72 28 39 3 341 337 331 270 285 291 289 281 257 246 249 260 254 242 256 254 268 263 260 251 242
3 0 358 358 358 356 354 348 343 353 15 30 85 128 245 331 351 14 29 48 44 340 256 315 302 270 237 306 298 279 282 274 302 225 228 202 257 247 263 242 248 247 249 253 253
358 357 355 357 356 353 351 343 349 351 10 17 84 64 357 334 344 323 298 292 304 285 273 285 207 218 271 260 275 246 265 268 288 263 220 215 253 252 260 259 253 241 239 247 249
356 354 353 353 353 355 353 351 14 14 341 1 34 51 7 326 321 316 303 278 300 307 322 121 149 197 201 205 249 269 260 270 272 314 281 245 247 256 262 261 259 260 244 243 244
355 352 350 350 355 4 1 33 14 1 32 342 304 271 300 316 309 316 346 285 286 71 48 29 238 236 229 234 256 269 271 275 276 282 271 271 272 272 275 265 253 255 251 247 249
359 354 351 351 2 31 47 73 79 246 319 305 261 261 276 269 308 332 42 347 347 347 79 23 248 252 247 256 258 261 264 268 278 282 261 275 273 273 276 274 263 258 251 248 253
358 356 353 352 33 42 59 72 358 176 272 304 256 268 295 185 303 286 74 359 322 330 240 237 271 332 252 271 274 263 253 260 266 295 281 284 278 268 262 264 260 257 252 249 246
360 358 354 357 59 360 61 354 351 154 55 338 2 34 349 255 291 231 222 300 280 300 310 262 259 263 275 264 252 268 278 266 277 278 262 315 272 276 258 246 243 244 249 241 241
352 348 349 359 330 345 335 337 6 138 25 313 17 337 328 343 312 24 262 358 271 280 300 272 281 296 297 273 246 256 301 284 280 272 274 260 270 271 261 251 238 239 230 240 237
344 343 341 338 320 327 338 338 102 44 266 351 19 349 357 352 329 329 323 289 270 289 251 259 259 288 235 294 265 281 281 284 267 264 258 243 238 269 245 248 257 256 242 234 234
342 337 327 312 313 322 329 37 44 102 329 16 342 331 333 328 323 10 326 321 305 324 332 316 248 241 219 298 265 234 277 277 241 213 252 257 230 243 276 258 247 247 244 241 230
345 343 36 20 311 30 13 56 82 240 324 16 324 316 340 12 342 327 343 354 19 324 286 303 306 203 174 280 300 302 266 266 277 244 278 254 249 245 235 238 254 268 249 248 235
351 52 49 355 87 87 66 61 179 200 13 337 319 329 340 12 340 338 345 339 25 36 5 308 289 295 259 268 265 346 290 287 271 253 276 264 269 266 254 261 250 245 250 244 238
355 19 25 50 94 22 67 119 212 211 342 315 287 5 324 332 336 347 305 240 352 41 80 315 303 269 307 292 209 230 321 322 264 284 211 247 263 267 235 333 331 293 265 251 249
17 62 39 53 20 44 97 227 290 257 327 252 265 291 275 290 319 310 277 277 17 333 337 294 243 290 306 281 299 302 315 307 271 289 330 323 270 31 12 348 339 338 321 285 246
66 72 5 77 42 321 144 218 291 288 307 292 234 258 263 314 292 282 267 314 16 358 334 302 285 287 303 322 3 61 300 294 304 326 292 264 273 25 0 338 330 353 8 10 346
70 312 14 99 217 236 265 265 241 267 287 331 292 260 343 294 298 283 295 330 326 342 330 331 306 314 310 344 37 338 303 281 273 274 283 276 279 344 331 331 332 339 359 17 21
86 49 341 50 16 139 267 274 250 300 276 228 258 282 328 279 275 281 295 298 333 309 295 296 262 255 277 291 293 290 293 286 271 285 292 269 288 305 323 320 325 328 344 4 27
41 165 173 323 337 174 139 279 270 294 234 260 261 200 332 288 292 278 292 304 302 291 277 258 261 256 266 272 289 280 286 288 278 270 257 284 299 308 322 321 322 314 332 336 6
128 139 167 268 247 202 225 236 240 269 239 261 248 302 298 271 275 291 293 293 285 290 276 255 266 288 281 285 274 291 287 284 277 323 268 281 294 339 308 294 313 336 327 323 349
137 116 112 264 167 137 229 211 233 357 270 260 295 309 299 291 298 287 277 271 259 263 272 260 259 268 276 290 304 293 233 330 287 342 316 305 327 333 342 334 335 330 332 358 344